{"data":{"norad_id":65577,"epoch":"2026-05-25T03:08:50.897760Z","epoch_age_seconds":57507,"freshness":"FRESH","line1":"1 65577U 25203N   26145.13114465  .00000079  00000+0  60025-4 0  9997","line2":"2 65577  81.3030  31.9725 0006152 253.5240 106.5242 13.84775466 35525","mean_motion":13.84775466,"eccentricity":0.0006152,"inclination_deg":81.303,"raan_deg":31.9725,"arg_perigee_deg":253.524,"mean_anomaly_deg":106.5242,"bstar":6.0025e-5,"rev_number":3552,"period_min":103.98797749931,"perigee_km":942.49103643692,"apogee_km":951.50388187546,"semimajor_km":7325.1344591562,"source":"CELESTRAK","updated_at":"2026-05-25T13:38:25.170814Z"}}